Location: Red n Blue Observatory
(38.4831°N, 87.0953°W)
Time: 12:21:59
(UTC-04:00)

Envisat - Visible Passes

Search period start: 08 September 2024 00:00
Search period end: 18 September 2024 00:00
Orbit: 762 x 764 km, 98.3° (Epoch: 08 September)

Date Brightness Start Highest point End Pass type
(mag) Time Alt. Az. Time Alt. Az. Time Alt. Az.
08 Sep 3.6 04:36:55 10° NNE 04:41:45 52° E 04:41:45 52° E visible
08 Sep 4.5 06:17:05 10° NNW 06:20:23 18° WNW 06:21:53 16° W visible
09 Sep 5.0 04:00:18 10° NE 04:03:46 22° E 04:03:46 22° E visible
09 Sep 3.5 05:38:37 10° N 05:43:18 38° WNW 05:43:55 37° W visible
10 Sep 2.9 05:00:53 10° NNE 05:05:55 88° NNW 05:05:55 88° NNW visible
10 Sep 5.0 06:43:21 10° NW 06:44:08 10° WNW 06:44:54 10° WNW visible
11 Sep 4.2 04:23:44 10° NNE 04:27:56 37° E 04:27:56 37° E visible
11 Sep 4.2 06:03:14 10° NNW 06:07:10 23° WNW 06:08:05 22° W visible
12 Sep 5.4 03:47:33 10° NE 03:49:56 16° E 03:49:56 16° E visible
12 Sep 3.1 05:25:05 10° N 05:30:00 52° WNW 05:30:05 52° WNW visible
13 Sep 3.3 04:47:33 10° NNE 04:52:06 63° ENE 04:52:06 63° ENE visible
13 Sep 4.7 06:28:25 10° NNW 06:30:57 14° WNW 06:32:15 13° W visible
14 Sep 4.8 04:10:39 10° NE 04:14:06 27° ENE 04:14:06 27° ENE visible
14 Sep 3.8 05:49:31 10° N 05:53:55 30° WNW 05:54:15 30° WNW visible
15 Sep 5.8 03:35:17 10° ENE 03:36:06 11° ENE 03:36:06 11° ENE visible
15 Sep 3.0 05:11:36 10° N 05:16:15 66° NW 05:16:15 66° NW visible
16 Sep 4.0 04:34:17 10° NNE 04:38:15 44° ENE 04:38:15 44° ENE visible
16 Sep 4.4 06:14:19 10° NNW 06:17:45 19° WNW 06:18:23 18° WNW visible
17 Sep 5.3 03:57:41 10° NE 04:00:14 20° ENE 04:00:14 20° ENE visible
17 Sep 3.5 05:35:54 10° N 05:40:23 40° WNW 05:40:23 40° WNW visible
